• Join FlightAware (Why Join?)
  • Login
  • US Flag 
06:36PM EST


 

Airport Tracker/Info


-or-


 

Live Flight TrackerFlight Track Log ✈ N41FR ✈ 08-Jun-2014 ✈ KORF - KMTN

Flight Track Log - Related Links

Times and Time Zones

All times are in EDT time to prevent confusion due to time zone crossing. See the N41FR flight status page for this flight to view local times or setup timezone preferences in your user account.

Time Position Orientation Groundspeed Altitude Reporting Facility
EDT Latitude Longitude Course Direction KTS MPH feet Rate Location/Type
02:03PM 36.8972 -76.2022 44° Northeast 86 99 400  Level Washington Center
02:03PM 36.9036 -76.1944 44° Northeast 88 101 800 1,151 Climbing Washington Center
02:04PM 36.9222 -76.1817 29° Northeast 90 104 1,800 1,043 Climbing Washington Center
02:05PM 36.9475 -76.1714 18° North 98 113 2,800 893 Climbing Washington Center
02:06PM 36.9661 -76.1950 315° West 105 121 3,600 843 Climbing Washington Center
02:07PM 36.9764 -76.2264 292° West 96 110 4,500 885 Climbing Washington Center
02:08PM 36.9844 -76.2600 287° West 92 106 5,400 836 Climbing Washington Center
02:09PM 37.0053 -76.2786 324° Northwest 95 109 6,200 738 Climbing Washington Center
02:10PM 37.0261 -76.2994 321° Northwest 106 122 6,900 397 Climbing Washington Center
02:11PM 37.0508 -76.3283 317° Northwest 140 161 7,000 49 Climbing Washington Center
02:12PM 37.0842 -76.3625 321° Northwest 156 180 7,000 -52 Level Washington Center
02:13PM 37.1153 -76.3914 323° Northwest 154 177 6,900 -52 Descending Washington Center
02:14PM 37.1503 -76.4206 326° Northwest 150 173 6,900  Level Washington Center
02:21PM 37.3577 -76.6205 321° Northwest 153 176 6,900  Level FlightAware ADS-B
02:21PM 37.3670 -76.6312 318° Northwest 154 177 6,900  Level FlightAware ADS-B
02:22PM 37.3890 -76.6574 317° Northwest 153 176 6,900  Level FlightAware ADS-B
02:23PM 37.4218 -76.6928 320° Northwest 149 171 6,900  Level FlightAware ADS-B
02:23PM 37.4323 -76.7043 319° Northwest 148 170 6,900 71 Level FlightAware ADS-B
02:24PM 37.4742 -76.7112 North 148 170 7,000  Climbing FlightAware ADS-B
02:25PM 37.5119 -76.7074 North 154 177 6,900  Descending FlightAware ADS-B
02:26PM 37.5405 -76.7054 359° North 154 177 7,000 97 Climbing FlightAware ADS-B
02:26PM 37.5558 -76.7057 360° North 154 177 7,000  Level FlightAware ADS-B
02:26PM 37.5707 -76.7042 North 155 178 7,000  Level FlightAware ADS-B
02:27PM 37.5847 -76.7031 North 157 181 7,000  Level FlightAware ADS-B
02:27PM 37.6007 -76.7022 North 148 170 7,000  Level FlightAware ADS-B (KWWD)
02:28PM 37.6243 -76.7004 North 149 171 7,000 -111 Level FlightAware ADS-B (KWWD)
02:28PM 37.6400 -76.6993 North 147 169 6,900 -143 Descending FlightAware ADS-B (KWWD)
02:28PM 37.6548 -76.6986 North 148 170 6,900  Level FlightAware ADS-B (KWWD)
02:29PM 37.6684 -76.6974 North 148 170 6,900  Level FlightAware ADS-B (KWWD)
02:29PM 37.6824 -76.6957 North 149 171 6,900  Level FlightAware ADS-B (KWWD)
02:30PM 37.7108 -76.6929 North 147 169 6,900 86 Level FlightAware ADS-B (KWWD)
02:30PM 37.7327 -76.6917 North 148 170 7,000 100 Climbing FlightAware ADS-B (KWWD)
02:31PM 37.7540 -76.6908 North 147 169 7,000 -111 Level FlightAware ADS-B (KWWD)
02:31PM 37.7715 -76.6888 North 156 180 6,900 -118 Descending FlightAware ADS-B
02:31PM 37.7903 -76.6869 North 149 171 6,900 133 Level FlightAware ADS-B (KWWD)
02:32PM 37.8040 -76.6854 North 144 166 7,000  Climbing FlightAware ADS-B (KWWD)
02:32PM 37.8198 -76.6843 North 143 165 6,900 -200 Descending FlightAware ADS-B (KWWD)
02:32PM 37.8252 -76.6843 360° North 145 167 6,900 200 Level FlightAware ADS-B (KWWD)
02:33PM 37.8412 -76.6840 359° North 150 173 7,000 222 Climbing FlightAware ADS-B (KWWD)
02:33PM 37.8433 -76.6839 North 147 169 7,000 -200 Level FlightAware ADS-B
02:33PM 37.8617 -76.6824 North 151 174 6,900  Descending FlightAware ADS-B (KWWD)
02:34PM 37.8846 -76.6806 North 147 169 7,000  Climbing FlightAware ADS-B
02:34PM 37.8965 -76.6805 North 150 173 6,900  Descending FlightAware ADS-B
02:34PM 37.9123 -76.6791 North 145 167 7,000  Climbing FlightAware ADS-B
02:35PM 37.9262 -76.6774 North 147 169 6,900  Descending FlightAware ADS-B
02:35PM 37.9390 -76.6761 North 149 171 7,000 316 Climbing FlightAware ADS-B
02:35PM 37.9522 -76.6750 North 149 171 7,100  Climbing FlightAware ADS-B
02:36PM 37.9809 -76.6743 North 159 183 7,000 -162 Descending FlightAware ADS-B
02:37PM 38.0024 -76.6739 359° North 150 173 6,900 -109 Descending FlightAware ADS-B (KWWD)
02:37PM 38.0212 -76.6743 358° North 148 170 6,900 143 Level FlightAware ADS-B (KWWD)
02:37PM 38.0361 -76.6728 North 151 174 7,000  Climbing FlightAware ADS-B
02:38PM 38.0490 -76.6706 North 149 171 6,900 -176 Descending FlightAware ADS-B (KWWD)
02:38PM 38.0609 -76.6695 North 149 171 6,900  Level FlightAware ADS-B (KWWD)
02:39PM 38.0949 -76.6684 North 148 170 6,900 -71 Level FlightAware ADS-B (KWWD)
02:39PM 38.1225 -76.6646 28° Northeast 170 196 6,800  Descending FlightAware ADS-B
02:40PM 38.1372 -76.6520 37° Northeast 157 181 6,900 91 Climbing FlightAware ADS-B
02:40PM 38.1638 -76.6314 29° Northeast 160 184 6,900 105 Level FlightAware ADS-B
02:41PM 38.1732 -76.6250 30° Northeast 147 169 7,000  Climbing FlightAware ADS-B (KWWD)
02:43PM 38.2497 -76.5699 32° Northeast 156 180 6,900 -37 Descending FlightAware ADS-B (KWWD)
02:43PM 38.2764 -76.5488 34° Northeast 156 180 6,900 107 Level FlightAware ADS-B (KWWD)
02:44PM 38.2867 -76.5409 33° Northeast 151 174 7,000 140 Climbing FlightAware ADS-B (KWWD)
02:44PM 38.3036 -76.5275 32° Northeast 153 176 7,000  Level FlightAware ADS-B (KWWD)
02:44PM 38.3236 -76.5131 33° Northeast 152 175 7,000  Level FlightAware ADS-B (KWWD)
02:45PM 38.3391 -76.5013 32° Northeast 153 176 7,000  Level FlightAware ADS-B (KWWD)
02:46PM 38.3792 -76.4725 34° Northeast 154 177 7,000 -71 Level FlightAware ADS-B (KWWD)
02:46PM 38.3933 -76.4611 30° Northeast 160 184 6,900  Descending FlightAware ADS-B
02:46PM 38.3989 -76.4569 29° Northeast 161 185 7,000 214 Climbing FlightAware ADS-B
02:47PM 38.4113 -76.4479 32° Northeast 153 176 7,000  Level FlightAware ADS-B (KWWD)
02:47PM 38.4227 -76.4400 30° Northeast 155 178 7,000  Level FlightAware ADS-B (KWWD)
02:48PM 38.4440 -76.4248 34° Northeast 156 180 7,000  Level FlightAware ADS-B (KWWD)
02:48PM 38.4578 -76.4149 27° Northeast 165 190 7,000  Level FlightAware ADS-B (KWWD)
02:48PM 38.4704 -76.4072 27° Northeast 161 185 7,000  Level FlightAware ADS-B (KWWD)
02:49PM 38.4839 -76.3967 34° Northeast 157 181 7,000  Level FlightAware ADS-B (KWWD)
02:49PM 38.4949 -76.3878 34° Northeast 156 180 7,000 -146 Level FlightAware ADS-B (KWWD)
02:49PM 38.5098 -76.3758 32° Northeast 155 178 6,900 -115 Descending FlightAware ADS-B (KWWD)
02:50PM 38.5290 -76.3627 30° Northeast 164 189 6,900 128 Level FlightAware ADS-B (KWWD)
02:50PM 38.5415 -76.3534 32° Northeast 158 182 7,000  Climbing FlightAware ADS-B (KWWD)
02:50PM 38.5532 -76.3440 35° Northeast 159 183 6,900  Descending FlightAware ADS-B (KWWD)
02:51PM 38.5670 -76.3324 34° Northeast 156 180 7,000 -167 Climbing FlightAware ADS-B (KWWD)
02:51PM 38.5770 -76.3254 31° Northeast 175 201 6,800 -774 Descending FlightAware ADS-B (KWWD)
02:51PM 38.5891 -76.3164 33° Northeast 190 219 6,600 -818 Descending FlightAware ADS-B (KWWD)
02:52PM 38.6100 -76.2998 20° North 191 220 6,200 -612 Descending FlightAware ADS-B (KWWD)
02:52PM 38.6281 -76.2943 13° North 185 213 6,100 -628 Descending FlightAware ADS-B (KWWD)
02:53PM 38.6826 -76.2747 15° North 188 216 5,300 -741 Descending FlightAware ADS-B (KWWD)
02:53PM 38.6961 -76.2702 14° North 187 215 5,100 -778 Descending FlightAware ADS-B (KWWD)
02:54PM 38.7284 -76.2593 15° North 189 217 4,600 -767 Descending FlightAware ADS-B (KWWD)
02:55PM 38.7687 -76.2461 14° North 184 212 4,000 -522 Descending FlightAware ADS-B (KWWD)
02:55PM 38.7852 -76.2410 14° North 167 192 4,000  Level FlightAware ADS-B (KWWD)
02:56PM 38.8169 -76.2341 12° North 165 190 4,000 97 Level FlightAware ADS-B (KWWD)
02:56PM 38.8321 -76.2297 14° North 153 176 4,100 -150 Climbing FlightAware ADS-B (KWWD)
02:57PM 38.8463 -76.2277 North 162 186 3,900 -727 Descending FlightAware ADS-B (KWWD)
02:57PM 38.8571 -76.2314 340° North 169 194 3,700 -727 Descending FlightAware ADS-B (KWWD)
02:57PM 38.8722 -76.2377 341° North 169 194 3,500 -533 Descending FlightAware ADS-B (KWWD)
02:58PM 38.8920 -76.2459 342° North 172 198 3,300 -490 Descending FlightAware ADS-B (KWWD)
02:58PM 38.9118 -76.2526 347° North 170 196 3,100 -409 Descending FlightAware ADS-B (KWWD)
02:58PM 38.9265 -76.2570 346° North 171 197 3,000 -235 Descending FlightAware ADS-B (KWWD)
02:59PM 38.9503 -76.2653 344° North 156 180 2,900 -100 Descending FlightAware ADS-B (KWWD)
02:59PM 38.9710 -76.2738 339° North 157 181 2,900  Level FlightAware ADS-B (KWWD)
03:00PM 38.9862 -76.2811 339° North 159 183 2,900  Level FlightAware ADS-B (KWWD)
03:00PM 38.9988 -76.2864 339° North 155 178 2,900 150 Level FlightAware ADS-B (KWWD)
03:00PM 39.0142 -76.2939 339° North 158 182 3,000 143 Climbing FlightAware ADS-B (KWWD)
03:01PM 39.0282 -76.2992 346° North 151 174 3,000  Level FlightAware ADS-B (KWWD)
03:01PM 39.0407 -76.3031 345° North 153 176 3,000 -154 Level FlightAware ADS-B (KWWD)
03:01PM 39.0562 -76.3083 344° North 154 177 2,900 -240 Descending FlightAware ADS-B (KWWD)
03:02PM 39.0772 -76.3165 343° North 173 199 2,800 -507 Descending FlightAware ADS-B (KWWD)
03:02PM 39.1105 -76.3291 344° North 182 209 2,300 -532 Descending FlightAware ADS-B (KWWD)
03:04PM 39.1735 -76.3545 341° North 175 201 1,700 -424 Descending FlightAware ADS-B (KWWD)
03:04PM 39.1876 -76.3610 340° North 175 201 1,600 -308 Descending FlightAware ADS-B (KWWD)
03:04PM 39.2035 -76.3684 341° North 172 198 1,500 -333 Descending FlightAware ADS-B (KWWD)
03:05PM 39.2145 -76.3731 342° North 172 198 1,400 -387 Descending FlightAware ADS-B (KWWD)
03:05PM 39.2267 -76.3783 342° North 172 198 1,300 -273 Descending FlightAware ADS-B (KWWD)
03:05PM 39.2477 -76.3872 341° North 169 194 1,200 -122 Descending FlightAware ADS-B (KWWD)
03:06PM 39.2630 -76.3939 341° North 156 180 1,200 -120 Level FlightAware ADS-B (KWWD)
03:06PM 39.2799 -76.4020 338° Northwest 120 138 1,100 -240 Descending FlightAware ADS-B (KWWD)
03:07PM 39.2914 -76.4075 341° North 121 139 1,000 -286 Descending FlightAware ADS-B (KWWD)
03:07PM 39.3011 -76.4156 320° Northwest 108 124 900 -150 Descending FlightAware ADS-B (KWWD)
03:07PM 39.3085 -76.4238 319° Northwest 112 129 900  Level FlightAware ADS-B (KWWD)
03:08PM 39.3165 -76.4333 317° Northwest 113 130 900 -289 Level FlightAware ADS-B (KWWD)
03:09PM 39.3333 -76.4333 317° Northwest 92 106 500 -387 Descending Potomac TRACON
03:11PM 39.3257 -76.4138 339° North  Level Estimated
03:18PM 39.3257 -76.4138 339° North  Level Estimated
03:19PM 39.3257 -76.4138 130° Southeast  Level Estimated
03:20PM 39.3257 -76.4138 339° North  Level Estimated
03:21PM 39.3257 -76.4138 130° Southeast  Level Estimated
03:22PM 39.3257 -76.4138 339° North  Level Estimated